When you browse on this site, cookies collect data to enhance your experience and personalize the content and advertising you see.
Visit our Privacy Policy to learn more. By continuing to use the site, you agree to this use of cookies and data.
  • In Schweiz
  • Länderverzeichnis
  • Für 7 Tage
  • Wassertemperatur
  • Satellitenkarten
  • Wetterkarte
  • Widgets
  • user-avatar
    Anmelden

    Stündliche Wetter Bern

    Heute, 19 Juni, Mittwoch

    Zeit Temperatur Niederschläge Wind Luftdruck Luftfeuchtigkeit
    00:00 +17°C° 0 mm 2 m/S 714 mmHg 79%
    01:00 +16°C° 0 mm 1 m/S 713 mmHg 79%
    02:00 +16°C° 0 mm 1 m/S 713 mmHg 79%
    03:00 +15°C° 0 mm 1 m/S 713 mmHg 79%
    04:00 +18°C° 0 mm 1 m/S 713 mmHg 76%
    05:00 +19°C° 0 mm 1 m/S 713 mmHg 74%
    06:00 +21°C° 0 mm 1 m/S 714 mmHg 72%
    07:00 +23°C° 0 mm 1 m/S 714 mmHg 66%
    08:00 +24°C° 0 mm 1 m/S 714 mmHg 60%
    09:00 +26°C° 0 mm 2 m/S 714 mmHg 53%
    10:00 +27°C° 0 mm 2 m/S 714 mmHg 49%
    11:00 +28°C° 0 mm 2 m/S 714 mmHg 45%
    12:00 +29°C° 0 mm 3 m/S 714 mmHg 41%
    13:00 +29°C° 0 mm 3 m/S 713 mmHg 41%
    14:00 +29°C° 0 mm 3 m/S 713 mmHg 42%
    15:00 +29°C° 0 mm 3 m/S 712 mmHg 42%
    16:00 +27°C° 0.1 mm 2 m/S 712 mmHg 50%
    17:00 +26°C° 0.1 mm 2 m/S 712 mmHg 58%
    18:00 +24°C° 0.1 mm 1 m/S 712 mmHg 67%
    19:00 +22°C° 0.5 mm 1 m/S 713 mmHg 74%
    20:00 +20°C° 0.5 mm 1 m/S 713 mmHg 81%
    21:00 +18°C° 0.5 mm 1 m/S 713 mmHg 88%
    22:00 +18°C° 0.2 mm 1 m/S 713 mmHg 89%
    23:00 +16°C° 0.2 mm 1 m/S 713 mmHg 90%

    Morgen, 20 Juni, Donnerstag

    Zeit Temperatur Niederschläge Wind Luftdruck Luftfeuchtigkeit
    00:00 +16°C° 0.2 mm 1 m/S 713 mmHg 91%
    01:00 +16°C° 0.2 mm 1 m/S 713 mmHg 91%
    02:00 +16°C° 0.2 mm 1 m/S 713 mmHg 91%
    03:00 +15°C° 0.2 mm 1 m/S 713 mmHg 91%
    04:00 +16°C° 0.4 mm 1 m/S 713 mmHg 91%
    05:00 +18°C° 0.4 mm 1 m/S 714 mmHg 91%
    06:00 +18°C° 0.4 mm 1 m/S 714 mmHg 91%
    07:00 +18°C° 0.4 mm 1 m/S 714 mmHg 91%
    08:00 +19°C° 0.4 mm 1 m/S 714 mmHg 91%
    09:00 +18°C° 0.4 mm 2 m/S 714 mmHg 91%
    10:00 +20°C° 0.4 mm 1 m/S 714 mmHg 85%
    11:00 +22°C° 0.4 mm 1 m/S 715 mmHg 79%
    12:00 +23°C° 0.4 mm 1 m/S 715 mmHg 72%
    13:00 +23°C° 1 mm 1 m/S 715 mmHg 75%
    14:00 +23°C° 1 mm 1 m/S 714 mmHg 77%
    15:00 +23°C° 1 mm 1 m/S 714 mmHg 80%
    16:00 +22°C° 0.9 mm 1 m/S 714 mmHg 83%
    17:00 +21°C° 0.9 mm 1 m/S 715 mmHg 87%
    18:00 +19°C° 0.9 mm 0 m/S 715 mmHg 91%
    19:00 +17°C° 0.2 mm 0 m/S 715 mmHg 92%
    20:00 +16°C° 0.2 mm 0 m/S 715 mmHg 92%
    21:00 +15°C° 0.2 mm 0 m/S 715 mmHg 93%
    22:00 +14°C° 0 mm 0 m/S 715 mmHg 94%
    23:00 +14°C° 0 mm 0 m/S 715 mmHg 94%

    übermorgen, 21 Juni, Freitag

    Zeit Temperatur Niederschläge Wind Luftdruck Luftfeuchtigkeit
    00:00 +13°C° 0 mm 0 m/S 715 mmHg 94%
    01:00 +13°C° 0 mm 0 m/S 715 mmHg 94%
    02:00 +13°C° 0 mm 0 m/S 715 mmHg 94%
    03:00 +12°C° 0 mm 0 m/S 715 mmHg 94%
    04:00 +13°C° 0 mm 0 m/S 715 mmHg 94%
    05:00 +14°C° 0 mm 0 m/S 716 mmHg 93%
    06:00 +16°C° 0 mm 0 m/S 716 mmHg 92%
    07:00 +19°C° 0 mm 1 m/S 716 mmHg 85%
    08:00 +21°C° 0 mm 1 m/S 716 mmHg 77%
    09:00 +21°C° 0 mm 2 m/S 716 mmHg 69%
    10:00 +24°C° 0.1 mm 2 m/S 716 mmHg 65%
    11:00 +25°C° 0.1 mm 2 m/S 716 mmHg 60%
    12:00 +26°C° 0.1 mm 2 m/S 716 mmHg 55%
    13:00 +25°C° 0.4 mm 2 m/S 716 mmHg 60%
    14:00 +25°C° 0.4 mm 2 m/S 716 mmHg 64%
    15:00 +24°C° 0.4 mm 2 m/S 716 mmHg 69%
    16:00 +23°C° 0.4 mm 2 m/S 716 mmHg 75%
    17:00 +21°C° 0.4 mm 2 m/S 715 mmHg 81%
    18:00 +20°C° 0.4 mm 2 m/S 715 mmHg 87%
    19:00 +19°C° 0.6 mm 2 m/S 715 mmHg 90%
    20:00 +18°C° 0.6 mm 2 m/S 715 mmHg 92%
    21:00 +18°C° 0.6 mm 1 m/S 716 mmHg 95%
    22:00 +16°C° 0.3 mm 1 m/S 715 mmHg 95%
    23:00 +16°C° 0.3 mm 1 m/S 715 mmHg 95%

    22 Juni, Samstag

    Zeit Temperatur Niederschläge Wind Luftdruck Luftfeuchtigkeit
    00:00 +16°C° 0.3 mm 1 m/S 715 mmHg 95%
    01:00 +16°C° 0.1 mm 1 m/S 715 mmHg 96%
    02:00 +15°C° 0.1 mm 1 m/S 714 mmHg 96%
    03:00 +14°C° 0.1 mm 0 m/S 714 mmHg 97%
    04:00 +15°C° 0 mm 0 m/S 714 mmHg 96%
    05:00 +15°C° 0 mm 0 m/S 715 mmHg 95%
    06:00 +16°C° 0 mm 0 m/S 715 mmHg 95%
    07:00 +17°C° 0.3 mm 0 m/S 715 mmHg 93%
    08:00 +19°C° 0.3 mm 1 m/S 715 mmHg 90%
    09:00 +20°C° 0.3 mm 1 m/S 715 mmHg 88%
    10:00 +21°C° 0.6 mm 1 m/S 715 mmHg 86%
    11:00 +21°C° 0.6 mm 1 m/S 715 mmHg 85%
    12:00 +22°C° 0.6 mm 1 m/S 716 mmHg 83%
    13:00 +21°C° 0.4 mm 2 m/S 716 mmHg 81%
    14:00 +21°C° 0.4 mm 2 m/S 715 mmHg 80%
    15:00 +23°C° 0.4 mm 2 m/S 715 mmHg 78%
    16:00 +21°C° 0.3 mm 2 m/S 715 mmHg 81%
    17:00 +20°C° 0.3 mm 2 m/S 716 mmHg 85%
    18:00 +21°C° 0.3 mm 1 m/S 716 mmHg 88%
    19:00 +20°C° 0.1 mm 1 m/S 716 mmHg 90%
    20:00 +18°C° 0.1 mm 1 m/S 716 mmHg 93%
    21:00 +16°C° 0.1 mm 1 m/S 716 mmHg 96%
    22:00 +15°C° 0 mm 1 m/S 716 mmHg 96%
    23:00 +15°C° 0 mm 1 m/S 716 mmHg 96%

    23 Juni, Sonntag

    Zeit Temperatur Niederschläge Wind Luftdruck Luftfeuchtigkeit
    00:00 +14°C° 0 mm 1 m/S 715 mmHg 96%
    01:00 +14°C° 0 mm 1 m/S 715 mmHg 96%
    02:00 +13°C° 0 mm 1 m/S 715 mmHg 96%
    03:00 +13°C° 0 mm 1 m/S 715 mmHg 96%
    04:00 +14°C° 0 mm 1 m/S 715 mmHg 94%
    05:00 +15°C° 0 mm 1 m/S 715 mmHg 93%
    06:00 +16°C° 0 mm 1 m/S 716 mmHg 91%
    07:00 +19°C° 0 mm 1 m/S 716 mmHg 84%
    08:00 +20°C° 0 mm 2 m/S 716 mmHg 77%
    09:00 +21°C° 0 mm 2 m/S 716 mmHg 70%
    10:00 +23°C° 0 mm 2 m/S 716 mmHg 65%
    11:00 +25°C° 0 mm 2 m/S 716 mmHg 60%
    12:00 +26°C° 0 mm 2 m/S 716 mmHg 55%
    13:00 +27°C° 0 mm 2 m/S 716 mmHg 54%
    14:00 +27°C° 0 mm 2 m/S 716 mmHg 53%
    15:00 +28°C° 0 mm 1 m/S 716 mmHg 52%
    16:00 +27°C° 0 mm 1 m/S 716 mmHg 61%
    17:00 +25°C° 0 mm 1 m/S 716 mmHg 69%
    18:00 +24°C° 0 mm 1 m/S 716 mmHg 78%
    19:00 +23°C° 0 mm 1 m/S 717 mmHg 82%
    20:00 +21°C° 0 mm 1 m/S 717 mmHg 87%
    21:00 +19°C° 0 mm 1 m/S 717 mmHg 92%
    22:00 +19°C° 0 mm 1 m/S 717 mmHg 93%
    23:00 +19°C° 0 mm 1 m/S 717 mmHg 93%

    24 Juni, Montag

    Zeit Temperatur Niederschläge Wind Luftdruck Luftfeuchtigkeit
    00:00 +18°C° 0 mm 1 m/S 717 mmHg 94%
    01:00 +18°C° 0 mm 1 m/S 717 mmHg 93%
    02:00 +16°C° 0 mm 1 m/S 717 mmHg 93%
    03:00 +15°C° 0 mm 0 m/S 717 mmHg 93%
    04:00 +17°C° 0 mm 0 m/S 717 mmHg 89%
    05:00 +18°C° 0 mm 0 m/S 718 mmHg 86%
    06:00 +19°C° 0 mm 0 m/S 718 mmHg 83%
    07:00 +21°C° 0 mm 0 m/S 718 mmHg 76%
    08:00 +26°C° 0 mm 1 m/S 718 mmHg 68%
    09:00 +28°C° 0 mm 1 m/S 719 mmHg 60%
    10:00 +29°C° 0 mm 1 m/S 719 mmHg 56%
    11:00 +30°C° 0 mm 1 m/S 719 mmHg 51%
    12:00 +32°C° 0 mm 1 m/S 719 mmHg 47%
    13:00 +32°C° 0 mm 1 m/S 719 mmHg 46%
    14:00 +32°C° 0 mm 1 m/S 719 mmHg 45%
    15:00 +32°C° 0 mm 1 m/S 718 mmHg 43%
    16:00 +31°C° 0 mm 1 m/S 718 mmHg 53%
    17:00 +29°C° 0 mm 1 m/S 718 mmHg 62%
    18:00 +27°C° 0 mm 1 m/S 718 mmHg 71%
    19:00 +26°C° 0 mm 1 m/S 718 mmHg 75%
    20:00 +24°C° 0 mm 1 m/S 718 mmHg 78%
    21:00 +22°C° 0 mm 1 m/S 718 mmHg 82%
    22:00 +21°C° 0 mm 1 m/S 718 mmHg 83%
    23:00 +21°C° 0 mm 1 m/S 718 mmHg 84%
    Mehr zeigen